Weather in Phalaborwa

South Africa     23°56′35″S   31°07′44″E
temp.,
°C
wind,
m/s
gust,
m/s
humid.,
%
clouds,
%
prec.,
mm/h
press.,
hPa
HPBL,
m
9 december, thu
thu923:00+23ese1184100 0.0 101735
02:00+23e1283100 0.0 1016162
05:00+22ssw118899 0.0 101724
08:00+26ese1164100 0.0 1018702
11:00+28wsw1255100 0.0 1016990
14:00+35nnw3433100 0.0 10122308
17:00+33nnw44312 0.0 10111427
20:00+28nw2242100 0.0 101211
10 december, fri
fri1023:00+26ssw224899 0.0 101315
02:00+24se235694 0.0 101364
05:00+23sse236578 0.0 101496
08:00+29ne234698 0.0 1014792
11:00+36n342597 0.0 10122065
14:00+38n432085 0.0 10083160
17:00+38n232094 0.0 10063247
20:00+28se5104899 0.0 1010309
11 december, sat
sat1123:00+26se611575 0.0 1013467
02:00+24se127172 0.0 101143
05:00+23sse257980 0.0 1012159
08:00+29ene224935 0.0 1013912
11:00+36nne34255 0.0 10112089
14:00+39n33203 0.0 10073259
17:00+38n3221100 0.0 10063191
20:00+31ssw2235100 0.0 100945
12 december, sun
sun1223:00+29se51045100 0.0 1011500
02:00+27sse2558100 0.1 1010149
05:00+25ese256614 0.0 1012141
08:00+31ene223773 0.1 10131050
11:00+36nne242450 0.2 10111846
14:00+39ene432249 0.2 10083372
17:00+37e342699 0.0 1006759
20:00+31sse4739100 0.2 1008160
13 december, mon
mon1323:00+29se5949100 0.1 1011723
02:00+27se47588 0.1 1011358
05:00+24se487442 0.0 1012334
08:00+29e335169 0.0 10131098
11:00+36ne343044 0.0 10102002
14:00+39nne3525100 0.0 10063229
17:00+38ne2324100 0.1 10052634
20:00+23sw61285100 3.3 1012537